Time,TemperatureF,DewpointF,PressureIn,WindDirection,WindDirectionDegrees,WindSpeedMPH,WindSpeedGustMPH,Humidity,HourlyPrecipIn,Conditions,Clouds,dailyrainin,SoftwareType,DateUTC
2013-01-15 00:02:00,23.4,12.3,30.48,ENE,75,1.0,2.0,62,0.00,,,0.00,Wunderground v.1.15,2013-01-15 06:02:00,
2013-01-15 00:12:00,23.2,12.5,30.47,ENE,73,2.0,3.0,63,0.00,,,0.00,Wunderground v.1.15,2013-01-15 06:12:00,
2013-01-15 00:22:00,23.1,12.7,30.48,East,84,3.0,3.0,64,0.00,,,0.00,Wunderground v.1.15,2013-01-15 06:22:00,
2013-01-15 00:32:00,22.7,13.0,30.48,ENE,72,2.0,2.0,66,0.00,,,0.00,Wunderground v.1.15,2013-01-15 06:32:00,
2013-01-15 00:42:00,22.4,12.4,30.47,East,89,2.0,2.0,65,0.00,,,0.00,Wunderground v.1.15,2013-01-15 06:42:00,
2013-01-15 00:52:00,22.1,12.1,30.47,East,85,1.0,1.0,65,0.00,,,0.00,Wunderground v.1.15,2013-01-15 06:52:00,
2013-01-15 01:02:00,21.9,11.9,30.47,ENE,64,2.0,2.0,65,0.00,,,0.00,Wunderground v.1.15,2013-01-15 07:02:00,
2013-01-15 01:11:00,21.9,11.9,30.47,ENE,63,1.0,1.0,65,0.00,,,0.00,Wunderground v.1.15,2013-01-15 07:11:00,
2013-01-15 01:22:00,21.7,11.7,30.46,ENE,69,1.0,2.0,65,0.00,,,0.00,Wunderground v.1.15,2013-01-15 07:22:00,
2013-01-15 01:32:00,21.6,12.0,30.46,ENE,68,2.0,2.0,66,0.00,,,0.00,Wunderground v.1.15,2013-01-15 07:32:00,
2013-01-15 01:42:00,21.5,11.9,30.46,ENE,68,2.0,2.0,66,0.00,,,0.00,Wunderground v.1.15,2013-01-15 07:42:00,
2013-01-15 01:52:00,21.5,11.9,30.45,East,82,2.0,3.0,66,0.00,,,0.00,Wunderground v.1.15,2013-01-15 07:52:00,
2013-01-15 02:02:00,21.4,11.8,30.45,East,93,3.0,4.0,66,0.00,,,0.00,Wunderground v.1.15,2013-01-15 08:02:00,
2013-01-15 02:12:00,21.4,11.8,30.44,ENE,74,3.0,3.0,66,0.00,,,0.00,Wunderground v.1.15,2013-01-15 08:12:00,
2013-01-15 02:22:00,21.3,12.0,30.44,ENE,72,3.0,3.0,67,0.00,,,0.00,Wunderground v.1.15,2013-01-15 08:22:00,
2013-01-15 02:32:00,21.2,11.9,30.45,East,85,3.0,3.0,67,0.00,,,0.00,Wunderground v.1.15,2013-01-15 08:32:00,
2013-01-15 02:42:00,21.0,11.8,30.45,ENE,73,2.0,2.0,67,0.00,,,0.00,Wunderground v.1.15,2013-01-15 08:42:00,
2013-01-15 02:52:00,21.1,11.8,30.46,ESE,110,1.0,1.0,67,0.00,,,0.00,Wunderground v.1.15,2013-01-15 08:52:00,
2013-01-15 03:02:00,20.6,12.0,30.46,ESE,115,2.0,2.0,69,0.00,,,0.00,Wunderground v.1.15,2013-01-15 09:02:00,
2013-01-15 03:12:00,20.5,12.9,30.45,East,89,2.0,2.0,72,0.00,,,0.00,Wunderground v.1.15,2013-01-15 09:12:00,
2013-01-15 03:22:00,20.7,12.8,30.45,ESE,115,2.0,2.0,71,0.00,,,0.00,Wunderground v.1.15,2013-01-15 09:22:00,
2013-01-15 03:32:00,20.2,12.9,30.44,East,79,1.0,1.0,73,0.00,,,0.00,Wunderground v.1.15,2013-01-15 09:32:00,
2013-01-15 03:42:00,20.5,12.6,30.44,East,93,2.0,2.0,71,0.00,,,0.00,Wunderground v.1.15,2013-01-15 09:42:00,
2013-01-15 03:52:00,20.6,12.0,30.44,East,87,2.0,2.0,69,0.00,,,0.00,Wunderground v.1.15,2013-01-15 09:52:00,
2013-01-15 04:02:00,20.5,11.9,30.45,East,91,2.0,2.0,69,0.00,,,0.00,Wunderground v.1.15,2013-01-15 10:02:00,
2013-01-15 04:12:00,20.4,11.8,30.45,ENE,78,1.0,1.0,69,0.00,,,0.00,Wunderground v.1.15,2013-01-15 10:12:00,
2013-01-15 04:22:00,20.3,11.7,30.44,East,100,1.0,2.0,69,0.00,,,0.00,Wunderground v.1.15,2013-01-15 10:22:00,
2013-01-15 04:32:00,20.2,12.0,30.44,East,92,1.0,1.0,70,0.00,,,0.00,Wunderground v.1.15,2013-01-15 10:32:00,
2013-01-15 04:41:00,20.0,11.8,30.44,East,91,0.0,0.0,70,0.00,,,0.00,Wunderground v.1.15,2013-01-15 10:41:00,
2013-01-15 04:51:00,19.8,11.9,30.44,East,91,0.0,0.0,71,0.00,,,0.00,Wunderground v.1.15,2013-01-15 10:51:00,
2013-01-15 05:02:00,19.7,11.8,30.45,East,92,0.0,0.0,71,0.00,,,0.00,Wunderground v.1.15,2013-01-15 11:02:00,
2013-01-15 05:12:00,19.4,11.5,30.45,East,92,0.0,0.0,71,0.00,,,0.00,Wunderground v.1.15,2013-01-15 11:12:00,
2013-01-15 05:22:00,18.8,11.6,30.45,NNW,335,0.0,0.0,73,0.00,,,0.00,Wunderground v.1.15,2013-01-15 11:22:00,
2013-01-15 05:32:00,18.3,11.4,30.45,NNW,346,0.0,1.0,74,0.00,,,0.00,Wunderground v.1.15,2013-01-15 11:32:00,
2013-01-15 05:42:00,18.3,11.4,30.45,NW,308,1.0,1.0,74,0.00,,,0.00,Wunderground v.1.15,2013-01-15 11:42:00,
2013-01-15 05:52:00,18.5,11.6,30.45,NW,321,1.0,1.0,74,0.00,,,0.00,Wunderground v.1.15,2013-01-15 11:52:00,
2013-01-15 06:02:00,18.1,11.2,30.45,NW,319,1.0,2.0,74,0.00,,,0.00,Wunderground v.1.15,2013-01-15 12:02:00,
2013-01-15 06:12:00,17.3,11.0,30.45,NNW,338,2.0,2.0,76,0.00,,,0.00,Wunderground v.1.15,2013-01-15 12:12:00,
2013-01-15 06:22:00,16.9,10.9,30.45,NNW,347,2.0,2.0,77,0.00,,,0.00,Wunderground v.1.15,2013-01-15 12:22:00,
2013-01-15 06:32:00,16.6,10.9,30.45,NNE,18,3.0,3.0,78,0.00,,,0.00,Wunderground v.1.15,2013-01-15 12:32:00,
2013-01-15 06:42:00,16.2,10.8,30.45,North,356,3.0,3.0,79,0.00,,,0.00,Wunderground v.1.15,2013-01-15 12:42:00,
2013-01-15 06:52:00,16.3,10.9,30.45,North,352,2.0,3.0,79,0.00,,,0.00,Wunderground v.1.15,2013-01-15 12:52:00,
2013-01-15 07:02:00,16.4,11.3,30.45,NW,315,3.0,3.0,80,0.00,,,0.00,Wunderground v.1.15,2013-01-15 13:02:00,
2013-01-15 07:12:00,16.3,10.9,30.45,NNW,347,3.0,4.0,79,0.00,,,0.00,Wunderground v.1.15,2013-01-15 13:12:00,
2013-01-15 07:22:00,15.7,10.6,30.45,NNW,336,4.0,4.0,80,0.00,,,0.00,Wunderground v.1.15,2013-01-15 13:22:00,
2013-01-15 07:32:00,15.3,10.2,30.45,NNW,338,2.0,3.0,80,0.00,,,0.00,Wunderground v.1.15,2013-01-15 13:32:00,
2013-01-15 07:42:00,14.9,10.1,30.44,North,355,3.0,4.0,81,0.00,,,0.00,Wunderground v.1.15,2013-01-15 13:42:00,
2013-01-15 07:52:00,14.9,10.4,30.44,North,6,3.0,4.0,82,0.00,,,0.00,Wunderground v.1.15,2013-01-15 13:52:00,
2013-01-15 08:02:00,15.3,10.5,30.44,NNE,15,2.0,3.0,81,0.00,,,0.00,Wunderground v.1.15,2013-01-15 14:02:00,
2013-01-15 08:12:00,15.3,10.5,30.43,NNE,21,2.0,3.0,81,0.00,,,0.00,Wunderground v.1.15,2013-01-15 14:12:00,
2013-01-15 08:21:00,15.8,10.7,30.43,North,358,3.0,3.0,80,0.00,,,0.00,Wunderground v.1.15,2013-01-15 14:21:00,
2013-01-15 08:32:00,17.2,12.1,30.44,NNE,22,2.0,2.0,80,0.00,,,0.00,Wunderground v.1.15,2013-01-15 14:32:00,
2013-01-15 08:42:00,18.1,12.7,30.44,North,356,3.0,3.0,79,0.00,,,0.00,Wunderground v.1.15,2013-01-15 14:42:00,
2013-01-15 08:52:00,18.5,12.8,30.44,NNE,20,3.0,5.0,78,0.00,,,0.00,Wunderground v.1.15,2013-01-15 14:52:00,
2013-01-15 09:02:00,19.4,13.4,30.45,NNE,24,4.0,4.0,77,0.00,,,0.00,Wunderground v.1.15,2013-01-15 15:02:00,
2013-01-15 09:12:00,20.3,13.6,30.45,NNE,29,3.0,5.0,75,0.00,,,0.00,Wunderground v.1.15,2013-01-15 15:12:00,
2013-01-15 09:22:00,20.8,13.5,30.45,NNE,28,4.0,4.0,73,0.00,,,0.00,Wunderground v.1.15,2013-01-15 15:22:00,
2013-01-15 09:32:00,21.9,13.6,30.46,NNE,19,3.0,3.0,70,0.00,,,0.00,Wunderground v.1.15,2013-01-15 15:32:00,
2013-01-15 09:42:00,22.7,13.4,30.46,NE,42,2.0,2.0,67,0.00,,,0.00,Wunderground v.1.15,2013-01-15 15:42:00,
2013-01-15 09:52:00,23.6,13.5,30.46,East,98,2.0,3.0,65,0.00,,,0.00,Wunderground v.1.15,2013-01-15 15:52:00,
2013-01-15 10:02:00,24.1,13.3,30.46,ENE,62,3.0,3.0,63,0.00,,,0.00,Wunderground v.1.15,2013-01-15 16:02:00,
2013-01-15 10:12:00,24.7,13.5,30.46,East,96,3.0,3.0,62,0.00,,,0.00,Wunderground v.1.15,2013-01-15 16:12:00,
2013-01-15 10:22:00,25.1,12.4,30.46,ESE,111,4.0,4.0,58,0.00,,,0.00,Wunderground v.1.15,2013-01-15 16:22:00,
2013-01-15 10:32:00,25.5,12.4,30.45,ESE,113,4.0,7.0,57,0.00,,,0.00,Wunderground v.1.15,2013-01-15 16:32:00,
2013-01-15 10:42:00,25.9,11.1,30.45,ENE,61,5.0,5.0,53,0.00,,,0.00,Wunderground v.1.15,2013-01-15 16:42:00,
2013-01-15 10:52:00,26.1,11.3,30.45,East,93,4.0,6.0,53,0.00,,,0.00,Wunderground v.1.15,2013-01-15 16:52:00,
2013-01-15 11:02:00,26.6,11.7,30.45,SE,136,5.0,5.0,53,0.00,,,0.00,Wunderground v.1.15,2013-01-15 17:02:00,
2013-01-15 11:12:00,27.3,12.8,30.45,East,85,4.0,7.0,54,0.00,,,0.00,Wunderground v.1.15,2013-01-15 17:12:00,
2013-01-15 11:22:00,27.4,12.5,30.44,East,84,5.0,5.0,53,0.00,,,0.00,Wunderground v.1.15,2013-01-15 17:22:00,
2013-01-15 11:32:00,27.7,12.8,30.43,SSE,159,4.0,4.0,53,0.00,,,0.00,Wunderground v.1.15,2013-01-15 17:32:00,
2013-01-15 11:42:00,28.6,13.2,30.43,ENE,63,3.0,5.0,52,0.00,,,0.00,Wunderground v.1.15,2013-01-15 17:42:00,
2013-01-15 11:52:00,28.4,12.1,30.42,ENE,70,4.0,4.0,50,0.00,,,0.00,Wunderground v.1.15,2013-01-15 17:52:00,
2013-01-15 12:02:00,29.0,12.2,30.42,ENE,78,4.0,5.0,49,0.00,,,0.00,Wunderground v.1.15,2013-01-15 18:02:00,
2013-01-15 12:12:00,29.0,12.2,30.41,ENE,72,4.0,4.0,49,0.00,,,0.00,Wunderground v.1.15,2013-01-15 18:12:00,
2013-01-15 12:22:00,29.3,11.5,30.41,NW,311,4.0,4.0,47,0.00,,,0.00,Wunderground v.1.15,2013-01-15 18:22:00,
2013-01-15 12:32:00,29.5,12.2,30.40,NNE,16,4.0,4.0,48,0.00,,,0.00,Wunderground v.1.15,2013-01-15 18:32:00,
2013-01-15 12:42:00,29.9,11.1,30.39,ENE,71,4.0,4.0,45,0.00,,,0.00,Wunderground v.1.15,2013-01-15 18:42:00,
2013-01-15 12:52:00,30.3,11.5,30.38,North,5,4.0,4.0,45,0.00,,,0.00,Wunderground v.1.15,2013-01-15 18:52:00,
2013-01-15 13:02:00,30.4,11.1,30.38,NE,34,4.0,7.0,44,0.00,,,0.00,Wunderground v.1.15,2013-01-15 19:02:00,
2013-01-15 13:11:00,30.6,11.2,30.37,ESE,114,5.0,5.0,44,0.00,,,0.00,Wunderground v.1.15,2013-01-15 19:11:00,
2013-01-15 13:22:00,31.5,11.5,30.37,ENE,69,3.0,7.0,43,0.00,,,0.00,Wunderground v.1.15,2013-01-15 19:22:00,
2013-01-15 13:32:00,31.4,10.9,30.36,NNE,25,5.0,8.0,42,0.00,,,0.00,Wunderground v.1.15,2013-01-15 19:32:00,
2013-01-15 13:42:00,31.6,11.6,30.36,NNE,13,4.0,4.0,43,0.00,,,0.00,Wunderground v.1.15,2013-01-15 19:42:00,
2013-01-15 13:52:00,31.9,11.4,30.36,WNW,301,5.0,5.0,42,0.00,,,0.00,Wunderground v.1.15,2013-01-15 19:52:00,
2013-01-15 14:02:00,32.0,12.0,30.36,NE,39,6.0,6.0,43,0.00,,,0.00,Wunderground v.1.15,2013-01-15 20:02:00,
2013-01-15 14:12:00,31.9,11.9,30.36,NNE,16,6.0,8.0,43,0.00,,,0.00,Wunderground v.1.15,2013-01-15 20:12:00,
2013-01-15 14:22:00,32.3,12.8,30.36,NNE,27,6.0,6.0,44,0.00,,,0.00,Wunderground v.1.15,2013-01-15 20:22:00,
2013-01-15 14:32:00,32.9,13.3,30.36,NE,50,4.0,4.0,44,0.00,,,0.00,Wunderground v.1.15,2013-01-15 20:32:00,
2013-01-15 14:42:00,33.0,13.4,30.36,NW,316,4.0,4.0,44,0.00,,,0.00,Wunderground v.1.15,2013-01-15 20:42:00,
2013-01-15 14:52:00,33.3,13.7,30.35,NW,316,6.0,6.0,44,0.00,,,0.00,Wunderground v.1.15,2013-01-15 20:52:00,
2013-01-15 15:02:00,33.5,13.9,30.35,NNE,31,4.0,4.0,44,0.00,,,0.00,Wunderground v.1.15,2013-01-15 21:02:00,
2013-01-15 15:12:00,34.2,14.5,30.35,North,4,4.0,6.0,44,0.00,,,0.00,Wunderground v.1.15,2013-01-15 21:12:00,
2013-01-15 15:22:00,33.8,14.2,30.35,NE,46,4.0,5.0,44,0.00,,,0.00,Wunderground v.1.15,2013-01-15 21:22:00,
2013-01-15 15:32:00,34.3,14.6,30.35,WNW,295,4.0,4.0,44,0.00,,,0.00,Wunderground v.1.15,2013-01-15 21:32:00,
2013-01-15 15:42:00,33.5,13.9,30.35,NE,52,6.0,6.0,44,0.00,,,0.00,Wunderground v.1.15,2013-01-15 21:42:00,
2013-01-15 15:52:00,34.0,14.3,30.35,WNW,302,4.0,4.0,44,0.00,,,0.00,Wunderground v.1.15,2013-01-15 21:52:00,
2013-01-15 16:02:00,34.3,14.6,30.35,NNE,32,6.0,9.0,44,0.00,,,0.00,Wunderground v.1.15,2013-01-15 22:02:00,
2013-01-15 16:12:00,34.9,15.2,30.35,NE,37,4.0,5.0,44,0.00,,,0.00,Wunderground v.1.15,2013-01-15 22:12:00,
2013-01-15 16:22:00,34.5,14.3,30.35,NNE,15,5.0,5.0,43,0.00,,,0.00,Wunderground v.1.15,2013-01-15 22:22:00,
2013-01-15 16:32:00,34.4,14.7,30.36,NE,35,4.0,4.0,44,0.00,,,0.00,Wunderground v.1.15,2013-01-15 22:32:00,
2013-01-15 16:42:00,34.3,14.6,30.36,WNW,303,4.0,4.0,44,0.00,,,0.00,Wunderground v.1.15,2013-01-15 22:42:00,
2013-01-15 16:52:00,34.6,14.4,30.36,NNE,25,2.0,3.0,43,0.00,,,0.00,Wunderground v.1.15,2013-01-15 22:52:00,
2013-01-15 17:02:00,34.0,14.3,30.36,NNE,18,3.0,3.0,44,0.00,,,0.00,Wunderground v.1.15,2013-01-15 23:02:00,
2013-01-15 17:12:00,34.1,14.4,30.36,NW,310,2.0,2.0,44,0.00,,,0.00,Wunderground v.1.15,2013-01-15 23:12:00,
2013-01-15 17:22:00,34.0,14.3,30.36,North,349,1.0,1.0,44,0.00,,,0.00,Wunderground v.1.15,2013-01-15 23:22:00,
2013-01-15 17:32:00,33.3,14.2,30.36,North,350,0.0,0.0,45,0.00,,,0.00,Wunderground v.1.15,2013-01-15 23:32:00,
2013-01-15 17:42:00,32.3,14.3,30.36,NW,318,0.0,0.0,47,0.00,,,0.00,Wunderground v.1.15,2013-01-15 23:42:00,
2013-01-15 17:52:00,31.4,14.4,30.36,NW,319,0.0,0.0,49,0.00,,,0.00,Wunderground v.1.15,2013-01-15 23:52:00,
2013-01-15 18:01:00,30.6,14.1,30.36,NW,319,0.0,0.0,50,0.00,,,0.00,Wunderground v.1.15,2013-01-16 00:01:00,
2013-01-15 18:11:00,29.7,14.2,30.36,NW,319,0.0,0.0,52,0.00,,,0.00,Wunderground v.1.15,2013-01-16 00:11:00,
2013-01-15 18:21:00,29.6,14.1,30.36,NW,318,0.0,0.0,52,0.00,,,0.00,Wunderground v.1.15,2013-01-16 00:21:00,
2013-01-15 18:32:00,29.4,14.4,30.36,NW,317,0.0,0.0,53,0.00,,,0.00,Wunderground v.1.15,2013-01-16 00:32:00,
2013-01-15 18:42:00,29.1,13.6,30.36,NW,317,0.0,0.0,52,0.00,,,0.00,Wunderground v.1.15,2013-01-16 00:42:00,
2013-01-15 18:52:00,28.2,13.7,30.36,NW,318,0.0,0.0,54,0.00,,,0.00,Wunderground v.1.15,2013-01-16 00:52:00,
2013-01-15 19:02:00,27.5,13.8,30.36,NW,318,0.0,0.0,56,0.00,,,0.00,Wunderground v.1.15,2013-01-16 01:02:00,
2013-01-15 19:12:00,27.0,13.8,30.36,NW,319,0.0,0.0,57,0.00,,,0.00,Wunderground v.1.15,2013-01-16 01:12:00,
2013-01-15 19:22:00,27.0,13.8,30.35,SSW,208,0.0,0.0,57,0.00,,,0.00,Wunderground v.1.15,2013-01-16 01:22:00,
2013-01-15 19:32:00,27.1,13.9,30.35,SSW,208,0.0,0.0,57,0.00,,,0.00,Wunderground v.1.15,2013-01-16 01:32:00,
2013-01-15 19:42:00,26.5,13.7,30.35,SSW,208,0.0,0.0,58,0.00,,,0.00,Wunderground v.1.15,2013-01-16 01:42:00,
2013-01-15 19:52:00,26.1,13.7,30.35,South,176,1.0,1.0,59,0.00,,,0.00,Wunderground v.1.15,2013-01-16 01:52:00,
2013-01-15 20:02:00,26.1,13.7,30.35,SSE,167,1.0,1.0,59,0.00,,,0.00,Wunderground v.1.15,2013-01-16 02:02:00,
2013-01-15 20:12:00,26.2,13.8,30.35,SSE,168,1.0,2.0,59,0.00,,,0.00,Wunderground v.1.15,2013-01-16 02:12:00,
2013-01-15 20:32:00,26.3,13.9,30.35,SSE,167,1.0,1.0,59,0.00,,,0.00,Wunderground v.1.15,2013-01-16 02:32:00,
2013-01-15 20:42:00,26.0,13.6,30.35,WSW,240,1.0,1.0,59,0.00,,,0.00,Wunderground v.1.15,2013-01-16 02:42:00,
2013-01-15 20:52:00,25.3,13.7,30.35,WSW,256,1.0,1.0,61,0.00,,,0.00,Wunderground v.1.15,2013-01-16 02:52:00,
2013-01-15 21:02:00,25.4,13.8,30.34,SW,236,2.0,2.0,61,0.00,,,0.00,Wunderground v.1.15,2013-01-16 03:02:00,
2013-01-15 21:12:00,25.0,13.8,30.34,South,188,2.0,2.0,62,0.00,,,0.00,Wunderground v.1.15,2013-01-16 03:12:00,
2013-01-15 21:22:00,24.9,13.7,30.34,SSW,210,2.0,2.0,62,0.00,,,0.00,Wunderground v.1.15,2013-01-16 03:22:00,
2013-01-15 21:32:00,24.9,13.7,30.34,SSW,203,2.0,2.0,62,0.00,,,0.00,Wunderground v.1.15,2013-01-16 03:32:00,
2013-01-15 21:42:00,24.8,13.6,30.34,SSW,200,3.0,3.0,62,0.00,,,0.00,Wunderground v.1.15,2013-01-16 03:42:00,
2013-01-15 22:02:00,24.5,13.3,30.33,SSW,204,2.0,2.0,62,0.00,,,0.00,Wunderground v.1.15,2013-01-16 04:02:00,
2013-01-15 22:12:00,24.2,13.0,30.33,SW,224,3.0,3.0,62,0.00,,,0.00,Wunderground v.1.15,2013-01-16 04:12:00,
2013-01-15 22:22:00,23.6,12.8,30.33,West,264,2.0,2.0,63,0.00,,,0.00,Wunderground v.1.15,2013-01-16 04:22:00,
2013-01-15 22:52:00,22.8,13.1,30.33,WSW,250,3.0,4.0,66,0.00,,,0.00,Wunderground v.1.15,2013-01-16 04:52:00,
2013-01-15 23:02:00,22.6,13.6,30.33,West,262,3.0,3.0,68,0.00,,,0.00,Wunderground v.1.15,2013-01-16 05:02:00,
2013-01-15 23:31:00,22.4,13.4,30.34,WSW,249,3.0,3.0,68,0.00,,,0.00,Wunderground v.1.15,2013-01-16 05:31:00,
2013-01-15 23:41:00,22.2,13.2,30.33,WSW,257,2.0,2.0,68,0.00,,,0.00,Wunderground v.1.15,2013-01-16 05:41:00,
2013-01-15 23:52:00,22.1,13.1,30.33,SW,231,2.0,2.0,68,0.00,,,0.00,Wunderground v.1.15,2013-01-16 05:52:00,